STARLINK-3984 (52621 NORAD) Tracking and Keplerian Element Data

This shows tracking and keplerian element data for the satellite.

Feedback or suggestion? Click here.




ElementValue
Catalog52621
NameSTARLINK-3984
Epoch Orbit1503
Epoch Day229.16667824
Epoch Year2022
RAAN347.3999
Inclination53.2175
Eccentricity0.0001469
Argument of Perigee64.8931
Mean Anonmoly242.2323
Mean Motion15.08821869
Decay Rate0.0004429
L11 52621U 22052Z 22229.16667824 .00044290 00000+0 27849-2 0 9994
L22 52621 53.2175 347.3999 0001469 64.8931 242.2323 15.08821869 15031

Live tracking and technical data element details for STARLINK-3984 (NORAD 52621). STARLINK-3984 can be tracked NOW for your location showing map with azimuth and elevation plus other details from your city location.

Track the satellite on the map from your city or location and see movement details for azimuth, elevation, latitude, longitude, range, height, and movement on the map or in text.







IsCatalogInMostPopularTable: catalog: 52621, numindb: 7
Update: records affected: 1



GetName: 52621 STARLINK-3984

Hit Count: updated at: Thu, 18 Aug 2022 18:56:45 GMT